Location: Newark
(34.3481°N, 134.0494°E)
Time: 01:35:49
(UTC+00:00)

Vanguard 3 - Pass Details

Date: 24 January 2020
Orbit: 508 x 3263 km, 33.3° (Epoch: 25 February)

Event Time Altitude Azimuth Distance (km) Brightness Sun altitude
Rises 08:44:26 0° 242° (WSW) 6,951 14.4 -4.6°
Reaches altitude 10° 08:48:52 10° 241° (WSW) 6,084 13.4 -5.5°
Maximum altitude 09:08:53 74° 161° (SSE) 3,173 10.1 -9.4°
Enters shadow 09:23:30 14° 81° (E) 4,717 10.4 -12.3°
